Flag for Hungary Weather past 2 weeks in Pécs, Hungary

Now
65 °F

Overcast.


Feels Like: 65 °F
Forecast: 55 / 70 °F
Wind: 2 mph from Southeast

Location: Pecs / Pogany

Current Time: Sep 16, 2014 at 5:39:36 PM

Latest Report: Sep 16, 2014 at 5:00 PM


Visibility: 31 mi

Pressure: 30.07 "Hg

Humidity: 72%

Dew point: 56 °F

Location of PécsLocation

Historic Weather in Pécs — Graph

°F

Pécs temperature yesterday

Maximum temperature yesterday: 70 °F (at 6:00 PM)
Minimum temperature yesterday: 58 °F (at 2:00 AM)
Average temperature yesterday: 62 °F

Past Weeks' High & Low Weather Summary

 TemperatureHumidityPressure
High78 °F (Sep 9, 3:00 PM)99% (Sep 14, 7:00 AM)30.09 "Hg (Sep 14, 7:00 AM)
Low56 °F (Sep 12, 6:00 AM)49% (Sep 9, 4:00 PM)29.78 "Hg (Sep 11, 11:00 PM)
Average64 °F85%29.95 "Hg
* Reported Sep 1 4:00 PM — Sep 16 4:00 PM, Pécs, Weather by CustomWeather, © 2014

Note: Actual official high and low records may vary slightly from our data, if they occured in-between our weather recording intervals... More about our weather records

Advertising

Pécs weather history for previous 24 hours

 ConditionsComfort  
Time TempWeatherWind HumidityBarometerVisibility
4:00 PM
Sep 16
69 °FOvercast.3 mph65%30.06 "Hg25 mi
3:00 PM68 °FOvercast.5 mph64%30.06 "Hg25 mi
2:00 PM68 °FOvercast.5 mph64%30.06 "Hg31 mi
1:00 PM66 °FOvercast.3 mph72%30.09 "Hg31 mi
12:00 PM68 °FOvercast.3 mph65%30.09 "Hg31 mi
11:00 AM64 °FScattered clouds.3 mph77%30.09 "Hg31 mi
10:00 AM63 °FLow clouds.3 mph80%30.09 "Hg25 mi
9:00 AM61 °FLow clouds.2 mph94%30.08 "Hg19 mi
8:00 AM59 °FLow clouds.1 mph98%30.07 "Hg5 mi
7:00 AM57 °FFog.2 mph98%30.08 "Hg2 mi
6:00 AM57 °FOvercast.5 mph98%30.07 "Hg4 mi
5:00 AM59 °FOvercast.3 mph98%30.06 "Hg9 mi
4:00 AM59 °FOvercast.2 mph98%30.06 "Hg9 mi
3:00 AM60 °FOvercast.2 mph98%30.05 "Hg12 mi
2:00 AM60 °FOvercast.2 mph98%30.04 "Hg12 mi
1:00 AM61 °FOvercast.3 mph98%30.05 "Hg12 mi
12:00 AM61 °FOvercast.2 mph98%30.05 "Hg12 mi
11:00 PM
Sep 15
60 °FOvercast.1 mph97%30.04 "Hg12 mi
10:00 PM60 °FOvercast.No wind96%30.04 "Hg12 mi
9:00 PM61 °FOvercast.1 mph95%30.04 "Hg9 mi
8:00 PM61 °FSprinkles. Overcast.2 mph94%30.04 "Hg7 mi
7:00 PM65 °FOvercast.1 mph78%30.02 "Hg9 mi
6:00 PM70 °FOvercast.1 mph65%30.00 "Hg31 mi
5:00 PM68 °FOvercast.2 mph72%30.00 "Hg31 mi
Weather by CustomWeather, © 2014

See weather overviewHow to use our weather pages